Skip Navigation Linkswww.weather.gov 
NOAA logo - Click to go to the NOAA homepage National Weather Service Forecast Office   NWS logo - Click to go to the NWS homepage    
Los Angeles, California
navigation bar decoration      
spacer
Printer Friendly  |   Go Back  |  Version: Current   1   2   3   4   5   6   7   8   9   10   |  Font:  A A A  |  

HOURLY WEATHER ROUNDUP
That Version is not available. Latest version shown.
 
 ASUS46 KSTO 061009
RWRCA

NORTHERN AND CENTRAL CA REGIONAL WEATHER ROUNDUP
NATIONAL WEATHER SERVICE SACRAMENTO CA
200 AM PST FRI MAR 06 2015

NOTE: FAIR INDICATES FEW OR NO CLOUDS BELOW 12,000 FEET WITH NO
SIGNIFICANT WEATHER AND/OR OBSTRUCTIONS TO VISIBILITY.

CAZ001-003-061100-
NORTHWEST AREA

CITY SKY/WX TMP DP RH WIND PRES REMARKS
CRESCENT CITY CLEAR 41 39 93 E3 30.36S
ARCATA NOT AVBL
SHELTER COVE NOT AVBL
UKIAH CLEAR 43 35 73 CALM 30.33S
$$

CAZ006-505>513-061100-
BAY AREA

CITY SKY/WX TMP DP RH WIND PRES REMARKS
SANTA ROSA CLEAR 41 39 93 NW6 30.29S
SAN RAFAEL N/A 48 MM MM MISG
NAPA CLEAR 42 37 82 N6 30.30S
CONCORD CLEAR 45 37 73 S5 30.30S
OAKLAND CITY N/A 51 MM MM MISG
OAKLAND CLEAR 47 38 71 CALM 30.29S
SAN FRAN CITY N/A 55 MM 62 MISG
SAN FRAN ARPT CLEAR 52 40 63 CALM 30.29S
LIVERMORE CLEAR 42 35 76 CALM 30.30S
HAYWARD CLEAR 52 39 61 NE6 30.29R
REDWOOD CITY N/A MM MM MM MISG
MOFFETT ARPT CLEAR 50 39 66 CALM 30.30S
SAN JOSE ARPT CLEAR 50 39 66 CALM 30.29S
$$
CAZ034-037-514>518-061100-
CENTRAL COAST

CITY SKY/WX TMP DP RH WIND PRES REMARKS
WATSONVILLE CLEAR 49 39 68 CALM 30.28S
SALINAS CLEAR 50 40 68 SE5 30.27S
MONTEREY CLEAR 50 38 63 SE3 30.26F
PT PIEDRAS BLS NOT AVBL
SAN LUIS OBISP CLEAR 50 36 58 CALM 30.20F
SANTA MARIA CLEAR 45 38 76 SE3 30.20F
$$
CAZ015-016-061100-
NORTHERN SACRAMENTO VALLEY

CITY SKY/WX TMP DP RH WIND PRES REMARKS
REDDING CLEAR 40 34 79 CALM 30.31S
RED BLUFF CLEAR 43 33 68 NW6 30.31S
OROVILLE CLEAR 45 41 86 CALM 30.30F
$$
CAZ016>018-061100-
SOUTHERN SACRAMENTO VALLEY

CITY SKY/WX TMP DP RH WIND PRES REMARKS
AUBURN CLEAR 46 37 71 E5 30.30S
BEALE AFB CLEAR 44 40 88 CALM 30.27F
LINCOLN FAIR 36 36 100 CALM 30.28S
MARYSVILLE CLEAR 43 39 86 NE3 30.30S
SAC INTL ARPT CLEAR 45 40 82 CALM 30.29S
MATHER AIRPORT NOT AVBL
DOWNTOWN SAC N/A 47 MM MM MISG
SAC EXEC ARPT CLEAR 44 39 82 CALM 30.30R
VACAVILLE CLEAR 42 36 79 CALM 30.30S
TRAVIS AFB CLEAR 40 37 91 SW5 30.27F
$$
CAZ019>021-061100-
SAN JOAQUIN VALLEY

CITY SKY/WX TMP DP RH WIND PRES REMARKS
STOCKTON CLEAR 41 37 86 CALM 30.28F
MODESTO CLEAR 44 39 82 CALM 30.28F
MERCED CLEAR 38 36 92 CALM 30.28F
LEMOORE CLEAR 43 31 62 NW9 30.29F
FRESNO CLEAR 47 40 76 CALM 30.28F
HANFORD CLEAR 46 39 76 NW3 30.29S
PORTERVILLE CLEAR 41 36 81 SW6 30.29R
BAKERSFIELD CLEAR 48 41 76 N5 30.27S
$$
CAZ011-012-071-061100-
NORTHERN MOUNTAINS

CITY SKY/WX TMP DP RH WIND PRES REMARKS
YREKA CLEAR 33 26 75 CALM 30.38S
MOUNT SHASTA CLEAR 31 23 72 CALM 30.36S
ALTURAS CLEAR 22 16 78 CALM 30.39S HAZE
$$
CAZ011-012-071-061100-
SIERRA NEVADA MTNS

CITY SKY/WX TMP DP RH WIND PRES REMARKS
BLUE CANYON CLEAR 48 13 24 NE5 30.37S
TRUCKEE CLEAR 23 19 86 CALM 30.42F
TAHOE VLY ARPT CLEAR 26 19 74 S3 30.41S
MAMMOTH LAKES FAIR 23 10 58 N5 30.44F WCI 17
$$



Webmaster
US Dept of Commerce
National Oceanic and Atmospheric Administration
National Weather Service
Los Angeles/Oxnard Weather Forecast Office
520 North Elevar Street
Oxnard, CA 93030

Tel: (805) 988-6610

Disclaimer
Information Quality
Credits
Glossary
Organization
Privacy Policy
Freedom of Information Act
About Us
Career Opportunities